Regional Weather Roundup
Issued by NWS

Home | Current Version | Previous Version | Graphics & Text | Print | Product List | Glossary On
Versions: 1 2 3 4 5 6 7 8 9 10 11 12 13 14 15 16 17 18 19 20 21 22 23 24 25 26 27 28 29 30 31 32 33 34 35 36 37 38 39 40 41 42 43 44 45 46 47 48 49 50
000
ASUS44 KMEG 182100
RWRTN
TENNESSEE HOURLY STATE WEATHER ROUNDUP
NATIONAL WEATHER SERVICE MEMPHIS TN
400 PM CDT SAT APR 18 2015

TNZ002-004-019-021-049-052-054-088>092-182200-
WEST TENNESSEE

CITY           SKY/WX    TMP DP  RH WIND       PRES   REMARKS
MEMPHIS INTL   CLOUDY    72  61  68 SE7       29.87F
NWS MEMPHIS      N/A     73 N/A N/A MISG        N/A
JACKSON        CLOUDY    76  59  55 E3        29.87F
DYERSBURG      CLOUDY    75  54  46 E5        29.88F
UNION CITY     MOSUNNY   77  32  19 VRB5      29.87F
PARIS          SUNNY     75  57  53 E9        29.89F
LEXINGTON      MOSUNNY   79  57  47 VRB7      29.87S
SAVANNAH       MOSUNNY   79  32  18 SE6       29.88F
$$

TNZ008-025-027-028-033-062-065-066-182200-
NORTH MIDDLE TENNESSEE

CITY           SKY/WX    TMP DP  RH WIND       PRES   REMARKS
NASHVILLE      PTSUNNY   80  60  50 NE9       29.89F
CLARKSVILLE    MOSUNNY   79  57  46 E12       29.89F
COOKEVILLE     MOSUNNY   79  57  47 CALM      29.91F
CROSSVILLE     CLOUDY    76  53  44 CALM      29.96S
$$

TNZ061-075-076-078-094-096-097-182200-
SOUTH MIDDLE TENNESSEE

CITY           SKY/WX    TMP DP  RH WIND       PRES   REMARKS
FAYETTEVILLE     N/A     72  63  73 S6        29.91S
TULLAHOMA      MOSUNNY   75  55  50 CALM      29.91F
WINCHESTER     MOSUNNY   75  57  53 SE8       29.90F
MCMINNVILLE    PTSUNNY   75  61  60 E5        29.91F
COLUMBIA       SUNNY     79  32  18 E6        29.87F
SHELBYVILLE    PTSUNNY   72  66  83 CALM      29.91F
$$

TNZ017-018-042-046-047-182200-
NORTHEAST TENNESSEE

CITY           SKY/WX    TMP DP  RH WIND       PRES   REMARKS
TRI CITIES     CLOUDY    70  58  65 SW9       29.95S
ELIZABETHTON   LGT RAIN  66  57  72 NW3       29.97S
$$

TNZ012-013-036-069-073-074-182200-
CENTRAL EAST TENNESSEE

CITY           SKY/WX    TMP DP  RH WIND       PRES   REMARKS
KNOXVILLE      CLOUDY    77  58  51 SE3       29.90S
OAK RIDGE      CLOUDY    80  55  42 CALM      29.92S
GATLINBURG     CLEAR     77  57  50 NE7       29.89F
$$

TNZ083-085-099-182200-
SOUTHEAST TENNESSEE

CITY           SKY/WX    TMP DP  RH WIND       PRES   REMARKS
CHATTANOOGA    CLOUDY    77  62  59 S3        29.92S
$$

SKY/WX REPORTED AS FAIR MEANS FEW OR NO CLOUDS BELOW
12 THOUSAND FEET.



USA.gov is the U.S. government's official web portal to all federal, state and local government web resources and services.